Beatrice, NE

6:37 PM CST on January 21, 2018 (GMT -0600)
Beatrice Municipal

Weather History for KBIE - October, 2013

Change the Weather History Date:

Friday, October 18, 2013

  Actual Average Record
Temperature  
Mean Temperature 40 °F -  
Max Temperature 47 °F 64 °F 86 °F (2005)
Min Temperature 32 °F 40 °F 30 °F (1970)
Degree Days  
Heating Degree Days 26    
Moisture  
Dew Point 31 °F    
Average Humidity 75    
Maximum Humidity 96    
Minimum Humidity 43    
Precipitation  
Precipitation 0.00 in - - ()
Sea Level Pressure  
Sea Level Pressure 30.10 in    
Wind  
Wind Speed 7 mph (WNW)    
Max Wind Speed 10 mph    
Max Gust Speed -    
Visibility 10 miles    
Events      
Averages and records for this station are not official NWS values.
T = Trace of Precipitation, MM = Missing Value Source: NWS Daily Summary

Daily Weather History Graph

Daily Weather History Graph

Search for Another Location

Airport or City:

Trip Planner

Search our weather history database for the weather conditions in past years. The results will help you decide how hot, cold, wet, or windy it might be!

Date:

Astronomy

Oct. 18, 2013 Rise Set
Actual Time 7:41 AM CDT 6:42 PM CDT
Civil Twilight 7:13 AM CDT 7:09 PM CDT
Nautical Twilight 6:42 AM CDT 7:41 PM CDT
Astronomical Twilight 6:10 AM CDT 8:12 PM CDT
Moon 6:32 PM CDT (10/18) 7:18 AM CDT (10/18)
Length of Visible Light 11h 56m
Length of Day
11h 01m
Full, 100% of the Moon is Illuminated
Oct 18
Full
Oct 18
Full
Oct 26
Last Quarter
Nov 3
New
Nov 9
First Quarter

Hourly Weather History & Observations

Time (CDT) Temp. Windchill Dew Point Humidity Pressure Visibility Wind Dir Wind Speed Gust Speed Precip Events Conditions
12:15 AM 43.7 °F 38.1 °F 35.8 °F 74% 30.08 in 10.0 mi NNW 10.4 mph - N/A   Overcast
12:35 AM 42.6 °F 38.4 °F 35.8 °F 77% 30.08 in 10.0 mi NW 6.9 mph - N/A   Overcast
12:55 AM 39.7 °F 34.3 °F 34.7 °F 82% 30.08 in 10.0 mi NW 8.1 mph - N/A   Scattered Clouds
1:15 AM 39.2 °F 34.2 °F 34.2 °F 82% 30.07 in 10.0 mi NNW 6.9 mph - N/A   Clear
1:35 AM 37.2 °F 32.6 °F 33.4 °F 86% 30.08 in 10.0 mi WNW 5.8 mph - N/A   Clear
1:55 AM 37.2 °F 32.6 °F 33.3 °F 86% 30.08 in 10.0 mi West 5.8 mph - N/A   Clear
2:15 AM 36.5 °F 31.8 °F 32.9 °F 87% 30.08 in 10.0 mi NW 5.8 mph - N/A   Clear
2:35 AM 34.9 °F 29.9 °F 32.5 °F 91% 30.08 in 10.0 mi NW 5.8 mph - N/A   Clear
2:55 AM 34.0 °F 29.8 °F 32.0 °F 92% 30.08 in 10.0 mi WNW 4.6 mph - N/A   Clear
3:15 AM 33.4 °F 27.3 °F 32.0 °F 94% 30.08 in 10.0 mi NW 6.9 mph - N/A   Clear
3:35 AM 34.7 °F 28.8 °F 32.4 °F 91% 30.08 in 10.0 mi NW 6.9 mph - N/A   Clear
3:55 AM 33.1 °F 27.7 °F 32.0 °F 96% 30.09 in 10.0 mi West 5.8 mph - N/A   Clear
4:15 AM 33.4 °F 28.1 °F 32.0 °F 94% 30.10 in 10.0 mi West 5.8 mph - N/A   Clear
4:35 AM 32.9 °F 28.5 °F 31.6 °F 95% 30.10 in 10.0 mi West 4.6 mph - N/A   Clear
4:55 AM 32.2 °F 26.7 °F 31.1 °F 96% 30.10 in 10.0 mi West 5.8 mph - N/A   Clear
5:15 AM 32.0 °F 26.4 °F 30.9 °F 96% 30.10 in 10.0 mi WNW 5.8 mph - N/A   Clear
5:35 AM 32.9 °F 26.7 °F 31.5 °F 94% 30.11 in 10.0 mi NW 6.9 mph - N/A   Clear
5:55 AM 33.8 °F 27.7 °F 32.0 °F 93% 30.10 in 10.0 mi NW 6.9 mph - N/A   Scattered Clouds
6:15 AM 34.5 °F 28.6 °F 32.0 °F 90% 30.11 in 10.0 mi NW 6.9 mph - N/A   Mostly Cloudy
6:35 AM 35.2 °F 29.5 °F 32.0 °F 88% 30.12 in 10.0 mi WNW 6.9 mph - N/A   Overcast
6:55 AM 35.6 °F 30.7 °F 32.2 °F 87% 30.12 in 10.0 mi NW 5.8 mph - N/A   Overcast
7:15 AM 35.8 °F 30.1 °F 32.0 °F 86% 30.11 in 10.0 mi NW 6.9 mph - N/A   Overcast
7:35 AM 35.8 °F 33.0 °F 32.0 °F 86% 30.12 in 10.0 mi NW 3.5 mph - N/A   Overcast
7:55 AM 35.8 °F 33.0 °F 32.4 °F 87% 30.12 in 10.0 mi NNW 3.5 mph - N/A   Overcast
8:15 AM 36.0 °F 31.1 °F 32.7 °F 88% 30.12 in 10.0 mi NW 5.8 mph - N/A   Overcast
8:35 AM 36.5 °F 31.8 °F 32.4 °F 85% 30.14 in 10.0 mi NW 5.8 mph - N/A   Overcast
8:55 AM 36.9 °F 32.2 °F 32.4 °F 84% 30.15 in 10.0 mi NW 5.8 mph - N/A   Overcast
9:15 AM 37.6 °F 34.0 °F 32.5 °F 82% 30.15 in 10.0 mi NNW 4.6 mph - N/A   Overcast
9:35 AM 38.3 °F 34.8 °F 32.7 °F 80% 30.15 in 10.0 mi NW 4.6 mph - N/A   Mostly Cloudy
9:55 AM 39.2 °F 37.0 °F 32.7 °F 78% 30.15 in 10.0 mi NW 3.5 mph - N/A   Mostly Cloudy
10:15 AM 39.6 °F 36.3 °F 33.1 °F 78% 30.16 in 10.0 mi NNW 4.6 mph - N/A   Scattered Clouds
10:35 AM 40.1 °F 36.1 °F 33.3 °F 77% 30.15 in 10.0 mi NNW 5.8 mph - N/A   Mostly Cloudy
10:55 AM 40.6 °F 37.5 °F 32.9 °F 74% 30.14 in 10.0 mi NNW 4.6 mph - N/A   Overcast
11:15 AM 41.4 °F 36.8 °F 33.3 °F 73% 30.14 in 10.0 mi NNW 6.9 mph - N/A   Mostly Cloudy
11:35 AM 41.9 °F 37.5 °F 32.9 °F 70% 30.14 in 10.0 mi NW 6.9 mph - N/A   Mostly Cloudy
11:55 AM 42.8 °F 38.6 °F 32.5 °F 67% 30.14 in 10.0 mi NNW 6.9 mph - N/A   Overcast
12:15 PM 43.7 °F 39.1 °F 32.2 °F 64% 30.15 in 10.0 mi NNW 8.1 mph - N/A   Overcast
12:35 PM 44.2 °F 40.3 °F 32.4 °F 63% 30.14 in 10.0 mi NW 6.9 mph - N/A   Overcast
12:55 PM 44.6 °F 42.2 °F 32.2 °F 62% 30.14 in 10.0 mi NNW 4.6 mph - N/A   Overcast
1:15 PM 44.8 °F 41.0 °F 31.6 °F 60% 30.13 in 10.0 mi NNW 6.9 mph - N/A   Overcast
1:35 PM 45.3 °F 42.3 °F 32.2 °F 60% 30.12 in 10.0 mi NW 5.8 mph - N/A   Overcast
1:55 PM 45.5 °F 42.5 °F 31.6 °F 58% 30.12 in 10.0 mi WNW 5.8 mph - N/A   Overcast
2:15 PM 46.0 °F 44.8 °F 30.7 °F 55% 30.11 in 10.0 mi NNW 3.5 mph - N/A   Mostly Cloudy
2:35 PM 46.0 °F 44.8 °F 29.8 °F 53% 30.10 in 10.0 mi NNW 3.5 mph - N/A   Scattered Clouds
2:55 PM 46.6 °F - 29.7 °F 52% 30.09 in 10.0 mi NNW 5.8 mph - N/A   Clear
3:15 PM 47.3 °F - 28.0 °F 47% 30.09 in 10.0 mi WNW 5.8 mph - N/A   Clear
3:35 PM 47.3 °F - 27.9 °F 47% 30.09 in 10.0 mi West 5.8 mph - N/A   Clear
3:55 PM 47.3 °F - 28.2 °F 48% 30.09 in 10.0 mi West 6.9 mph - N/A   Clear
4:15 PM 47.5 °F - 27.7 °F 46% 30.09 in 10.0 mi West 8.1 mph - N/A   Clear
4:35 PM 47.3 °F - 27.7 °F 47% 30.09 in 10.0 mi WNW 6.9 mph - N/A   Clear
4:55 PM 47.5 °F - 27.0 °F 45% 30.09 in 10.0 mi West 6.9 mph - N/A   Clear
5:15 PM 47.3 °F - 26.1 °F 44% 30.08 in 10.0 mi WNW 5.8 mph - N/A   Clear
5:35 PM 47.3 °F - 26.8 °F 45% 30.08 in 10.0 mi West 8.1 mph - N/A   Clear
5:55 PM 47.8 °F - 26.1 °F 43% 30.07 in 10.0 mi West 6.9 mph - N/A   Clear
6:15 PM 45.5 °F 42.5 °F 26.1 °F 47% 30.07 in 10.0 mi West 5.8 mph - N/A   Clear
6:35 PM 44.6 °F 41.4 °F 26.2 °F 49% 30.06 in 10.0 mi WSW 5.8 mph - N/A   Clear
6:55 PM 42.3 °F 39.4 °F 28.0 °F 57% 30.05 in 10.0 mi SSW 4.6 mph - N/A   Clear
7:15 PM 41.9 °F 40.0 °F 28.8 °F 60% 30.05 in 10.0 mi SSW 3.5 mph - N/A   Clear
7:35 PM 40.8 °F 38.8 °F 28.9 °F 63% 30.05 in 10.0 mi SSW 3.5 mph - N/A   Clear
7:55 PM 39.0 °F 34.8 °F 28.9 °F 67% 30.06 in 10.0 mi SW 5.8 mph - N/A   Clear
8:15 PM 37.2 °F 33.6 °F 30.2 °F 76% 30.06 in 10.0 mi SW 4.6 mph - N/A   Clear
8:35 PM 36.5 °F 31.0 °F 28.9 °F 74% 30.06 in 10.0 mi SW 6.9 mph - N/A   Clear
8:55 PM 36.5 °F 31.0 °F 28.4 °F 72% 30.06 in 10.0 mi South 6.9 mph - N/A   Clear
9:15 PM 37.0 °F 30.4 °F 31.6 °F 81% 30.06 in 10.0 mi SSW 9.2 mph - N/A   Clear
9:35 PM 37.4 °F 30.8 °F 34.2 °F 88% 30.06 in 10.0 mi SSW 9.2 mph - N/A   Clear
9:55 PM 37.6 °F 31.0 °F 34.9 °F 90% 30.06 in 10.0 mi SSW 9.2 mph - N/A   Clear
10:15 PM 37.2 °F 31.2 °F 34.7 °F 91% 30.06 in 10.0 mi SW 8.1 mph - N/A   Clear
10:35 PM 36.5 °F 31.0 °F 34.5 °F 93% 30.06 in 10.0 mi SW 6.9 mph - N/A   Clear
10:55 PM 36.1 °F 29.9 °F 34.3 °F 93% 30.05 in 10.0 mi SW 8.1 mph - N/A   Clear
11:15 PM 36.1 °F 29.9 °F 34.7 °F 94% 30.05 in 10.0 mi SW 8.1 mph - N/A   Clear
11:35 PM 35.8 °F 30.1 °F 34.3 °F 94% 30.05 in 10.0 mi SSW 6.9 mph - N/A   Clear
11:55 PM 35.2 °F 30.3 °F 33.8 °F 94% 30.04 in 10.0 mi SW 5.8 mph - N/A   Clear